This is the latest recevied weather packets stored in our database for station/object G4MDP-13. If no packets are shown the sender has not sent any weather packets the latest 10 day(s).
| Time | Temp. | Humidity | Pressure | Rain* | Wind** | Luminosity | Snow |
|---|---|---|---|---|---|---|---|
| 1777890890 | 15.56° C | 76% | 1007.8 hPa | 0 mm | - | - | - |
| 1777890833 | 15.56° C | 75% | 1008 hPa | 0 mm | - | - | - |
| 1777890831 | 15.56° C | 75% | 1008 hPa | 0 mm | - | - | - |
| 1777889931 | 15° C | 79% | 1007.9 hPa | 0 mm | - | - | - |
| 1777889930 | 15° C | 79% | 1007.9 hPa | 0 mm | - | - | - |
| 1777889090 | 14.44° C | 82% | 1008 hPa | 0 mm | - | - | - |
| 1777889031 | 14.44° C | 82% | 1008 hPa | 0 mm | - | - | - |
| 1777888131 | 13.89° C | 83% | 1008 hPa | 0 mm | - | - | - |
| 1777888130 | 13.89° C | 83% | 1008 hPa | 0 mm | - | - | - |
| 1777887653 | 13.89° C | 85% | 1008 hPa | 0 mm | - | - | - |
| 1777887651 | 13.89° C | 85% | 1008 hPa | 0 mm | - | - | - |
| 1777887411 | 13.89° C | 86% | 1008.1 hPa | 0 mm | - | - | - |
| 1777887410 | 13.89° C | 86% | 1008.1 hPa | 0 mm | - | - | - |
| 1777887291 | 13.33° C | 86% | 1008.2 hPa | 0 mm | - | - | - |
| 1777887290 | 13.33° C | 86% | 1008.2 hPa | 0 mm | - | - | - |
| 1777887243 | 13.33° C | 86% | 1008 hPa | 0 mm | - | - | - |
| 1777887243 | 13.33° C | 86% | 1008 hPa | 0 mm | - | - | - |
| 1777886763 | 13.33° C | 87% | 1008 hPa | 0 mm | - | - | - |
| 1777886523 | 13.33° C | 87% | 1008.3 hPa | 0 mm | - | - | - |
| 1777886523 | 13.33° C | 87% | 1008.3 hPa | 0 mm | - | - | - |
| 1777886403 | 13.33° C | 88% | 1008 hPa | 0 mm | - | - | - |
| 1777886402 | 13.33° C | 88% | 1008 hPa | 0 mm | - | - | - |
| 1777885840 | 12.78° C | 89% | 1008.3 hPa | 0 mm | - | - | - |
| 1777885838 | 12.78° C | 89% | 1008.3 hPa | 0 mm | - | - | - |
| 1777885358 | 12.78° C | 90% | 1007.8 hPa | 0 mm | - | - | - |
* Rain latest hour (hover to see other rain measurements)
** Current wind speed in m/s (hover to see current wind gust speed)